Year,Month,Day,Hour,Minute,Value (Times are PST for temperature in C)
2015,06,08,00,00,15.30
2015,06,08,00,01,15.30
2015,06,08,00,02,15.30
2015,06,08,00,03,15.30
2015,06,08,00,04,15.30
2015,06,08,00,05,15.30
2015,06,08,00,06,15.30
2015,06,08,00,07,15.30
2015,06,08,00,08,15.30
2015,06,08,00,09,15.30
2015,06,08,00,10,15.30
2015,06,08,00,11,15.30
2015,06,08,00,12,15.20
2015,06,08,00,13,15.20
2015,06,08,00,14,15.20
2015,06,08,00,15,15.20
2015,06,08,00,16,15.20
2015,06,08,00,17,15.20
2015,06,08,00,18,15.20
2015,06,08,00,19,15.20
2015,06,08,00,20,15.20
2015,06,08,00,21,15.20
2015,06,08,00,22,15.20
2015,06,08,00,23,15.20
2015,06,08,00,24,15.20
2015,06,08,00,25,15.20
2015,06,08,00,26,15.10
2015,06,08,00,27,15.10
2015,06,08,00,28,15.10
2015,06,08,00,29,15.10
2015,06,08,00,30,15.10
2015,06,08,00,31,15.10
2015,06,08,00,32,15.00
2015,06,08,00,33,15.00
2015,06,08,00,34,15.00
2015,06,08,00,35,15.00
2015,06,08,00,36,15.00
2015,06,08,00,37,15.00
2015,06,08,00,38,14.90
2015,06,08,00,39,14.90
2015,06,08,00,40,14.90
2015,06,08,00,41,14.90
2015,06,08,00,42,14.90
2015,06,08,00,43,14.90
2015,06,08,00,44,14.90
2015,06,08,00,45,14.90
2015,06,08,00,46,14.80
2015,06,08,00,47,14.80
2015,06,08,00,48,14.80
2015,06,08,00,49,14.80
2015,06,08,00,50,14.80
2015,06,08,00,51,14.80
2015,06,08,00,52,14.80
2015,06,08,00,53,14.80
2015,06,08,00,54,14.80
2015,06,08,00,55,14.80
2015,06,08,00,56,14.80
2015,06,08,00,57,14.80
2015,06,08,00,58,14.80
2015,06,08,00,59,14.80
2015,06,08,01,00,14.80
2015,06,08,01,01,14.80
2015,06,08,01,02,14.80
2015,06,08,01,03,14.80
2015,06,08,01,04,14.70
2015,06,08,01,05,14.70
2015,06,08,01,06,14.70
2015,06,08,01,07,14.70
2015,06,08,01,08,14.70
2015,06,08,01,09,14.70
2015,06,08,01,10,14.70
2015,06,08,01,11,14.70
2015,06,08,01,12,14.70
2015,06,08,01,13,14.70
2015,06,08,01,14,14.70
2015,06,08,01,15,14.60
2015,06,08,01,16,14.60
2015,06,08,01,17,14.60
2015,06,08,01,18,14.60
2015,06,08,01,19,14.60
2015,06,08,01,20,14.50
2015,06,08,01,21,14.50
2015,06,08,01,22,14.40
2015,06,08,01,23,14.40
2015,06,08,01,24,14.40
2015,06,08,01,25,14.40
2015,06,08,01,26,14.40
2015,06,08,01,27,14.40
2015,06,08,01,28,14.40
2015,06,08,01,29,14.40
2015,06,08,01,30,14.40
2015,06,08,01,31,14.40
2015,06,08,01,32,14.40
2015,06,08,01,33,14.40
2015,06,08,01,34,14.40
2015,06,08,01,35,14.40
2015,06,08,01,36,14.40
2015,06,08,01,37,14.40
2015,06,08,01,38,14.40
2015,06,08,01,39,14.40
2015,06,08,01,40,14.40
2015,06,08,01,41,14.40
2015,06,08,01,42,14.40
2015,06,08,01,43,14.40
2015,06,08,01,44,14.40
2015,06,08,01,45,14.40
2015,06,08,01,46,14.30
2015,06,08,01,47,14.30
2015,06,08,01,48,14.30
2015,06,08,01,49,14.30
2015,06,08,01,50,14.30
2015,06,08,01,51,14.30
2015,06,08,01,52,14.20
2015,06,08,01,53,14.20
2015,06,08,01,54,14.20
2015,06,08,01,55,14.20
2015,06,08,01,56,14.20
2015,06,08,01,57,14.20
2015,06,08,01,58,14.20
2015,06,08,01,59,14.10
2015,06,08,02,00,14.10
2015,06,08,02,01,14.10
2015,06,08,02,02,14.10
2015,06,08,02,03,14.10
2015,06,08,02,04,14.00
2015,06,08,02,05,14.00
2015,06,08,02,06,14.00
2015,06,08,02,07,14.00
2015,06,08,02,08,13.90
2015,06,08,02,09,13.90
2015,06,08,02,10,13.90
2015,06,08,02,11,13.90
2015,06,08,02,12,13.90
2015,06,08,02,13,13.90
2015,06,08,02,14,13.90
2015,06,08,02,15,13.90
2015,06,08,02,16,13.90
2015,06,08,02,17,13.90
2015,06,08,02,18,13.90
2015,06,08,02,19,13.90
2015,06,08,02,20,13.90
2015,06,08,02,21,13.90
2015,06,08,02,22,13.90
2015,06,08,02,23,13.90
2015,06,08,02,24,13.90
2015,06,08,02,25,14.00
2015,06,08,02,26,14.00
2015,06,08,02,27,14.00
2015,06,08,02,28,14.00
2015,06,08,02,29,14.00
2015,06,08,02,30,14.00
2015,06,08,02,31,14.00
2015,06,08,02,32,14.00
2015,06,08,02,33,14.00
2015,06,08,02,34,14.00
2015,06,08,02,35,14.00
2015,06,08,02,36,14.00
2015,06,08,02,37,14.00
2015,06,08,02,38,14.00
2015,06,08,02,39,13.90
2015,06,08,02,40,13.90
2015,06,08,02,41,13.90
2015,06,08,02,42,13.90
2015,06,08,02,43,13.90
2015,06,08,02,44,13.90
2015,06,08,02,45,13.90
2015,06,08,02,46,13.80
2015,06,08,02,47,13.80
2015,06,08,02,48,13.80
2015,06,08,02,49,13.80
2015,06,08,02,50,13.80
2015,06,08,02,51,13.80
2015,06,08,02,52,13.80
2015,06,08,02,53,13.80
2015,06,08,02,54,13.70
2015,06,08,02,55,13.70
2015,06,08,02,56,13.70
2015,06,08,02,57,13.70
2015,06,08,02,58,13.70
2015,06,08,02,59,13.70
2015,06,08,03,00,13.70
2015,06,08,03,01,13.60
2015,06,08,03,02,13.60
2015,06,08,03,03,13.60
2015,06,08,03,04,13.60
2015,06,08,03,05,13.60
2015,06,08,03,06,13.60
2015,06,08,03,07,13.60
2015,06,08,03,08,13.50
2015,06,08,03,09,13.50
2015,06,08,03,10,13.50
2015,06,08,03,11,13.50
2015,06,08,03,12,13.40
2015,06,08,03,13,13.40
2015,06,08,03,14,13.40
2015,06,08,03,15,13.40
2015,06,08,03,16,13.40
2015,06,08,03,17,13.40
2015,06,08,03,18,13.40
2015,06,08,03,19,13.40
2015,06,08,03,20,13.40
2015,06,08,03,21,13.40
2015,06,08,03,22,13.40
2015,06,08,03,23,13.40
2015,06,08,03,24,13.30
2015,06,08,03,25,13.30
2015,06,08,03,26,13.30
2015,06,08,03,27,13.30
2015,06,08,03,28,13.20
2015,06,08,03,29,13.20
2015,06,08,03,30,13.20
2015,06,08,03,31,13.20
2015,06,08,03,32,13.10
2015,06,08,03,33,13.10
2015,06,08,03,34,13.10
2015,06,08,03,35,13.10
2015,06,08,03,36,13.10
2015,06,08,03,37,13.10
2015,06,08,03,38,13.10
2015,06,08,03,39,13.10
2015,06,08,03,40,13.10
2015,06,08,03,41,13.10
2015,06,08,03,42,13.10
2015,06,08,03,43,13.10
2015,06,08,03,44,13.10
2015,06,08,03,45,13.10
2015,06,08,03,46,13.10
2015,06,08,03,47,13.10
2015,06,08,03,48,13.10
2015,06,08,03,49,13.10
2015,06,08,03,50,13.10
2015,06,08,03,51,13.10
2015,06,08,03,52,13.10
2015,06,08,03,53,13.10
2015,06,08,03,54,13.10
2015,06,08,03,55,13.10
2015,06,08,03,56,13.10
2015,06,08,03,57,13.10
2015,06,08,03,58,13.00
2015,06,08,03,59,13.00
2015,06,08,04,00,13.00
2015,06,08,04,01,13.00
2015,06,08,04,02,13.00
2015,06,08,04,03,13.00
2015,06,08,04,04,13.00
2015,06,08,04,05,13.00
2015,06,08,04,06,12.90
2015,06,08,04,07,12.90
2015,06,08,04,08,12.90
2015,06,08,04,09,12.90
2015,06,08,04,10,12.90
2015,06,08,04,11,12.90
2015,06,08,04,12,12.80
2015,06,08,04,13,12.80
2015,06,08,04,14,12.80
2015,06,08,04,15,12.80
2015,06,08,04,16,12.80
2015,06,08,04,17,12.80
2015,06,08,04,18,12.80
2015,06,08,04,19,12.80
2015,06,08,04,20,12.80
2015,06,08,04,21,12.80
2015,06,08,04,22,12.80
2015,06,08,04,23,12.80
2015,06,08,04,24,12.80
2015,06,08,04,25,12.80
2015,06,08,04,26,12.80
2015,06,08,04,27,12.80
2015,06,08,04,28,12.80
2015,06,08,04,29,12.80
2015,06,08,04,30,12.80
2015,06,08,04,31,12.80
2015,06,08,04,32,12.80
2015,06,08,04,33,12.80
2015,06,08,04,34,12.80
2015,06,08,04,35,12.80
2015,06,08,04,36,12.80
2015,06,08,04,37,12.80
2015,06,08,04,38,12.80
2015,06,08,04,39,12.80
2015,06,08,04,40,12.80
2015,06,08,04,41,12.80
2015,06,08,04,42,12.80
2015,06,08,04,43,12.80
2015,06,08,04,44,12.80
2015,06,08,04,45,12.80
2015,06,08,04,46,12.80
2015,06,08,04,47,12.80
2015,06,08,04,48,12.80
2015,06,08,04,49,12.80
2015,06,08,04,50,12.70
2015,06,08,04,51,12.70
2015,06,08,04,52,12.70
2015,06,08,04,53,12.70
2015,06,08,04,54,12.70
2015,06,08,04,55,12.70
2015,06,08,04,56,12.70
2015,06,08,04,57,12.70
2015,06,08,04,58,12.70
2015,06,08,04,59,12.70
2015,06,08,05,00,12.80
2015,06,08,05,01,12.70
2015,06,08,05,02,12.70
2015,06,08,05,03,12.80
2015,06,08,05,04,12.70
2015,06,08,05,05,12.70
2015,06,08,05,06,12.70
2015,06,08,05,07,12.70
2015,06,08,05,08,12.70
2015,06,08,05,09,12.70
2015,06,08,05,10,12.70
2015,06,08,05,11,12.70
2015,06,08,05,12,12.70
2015,06,08,05,13,12.70
2015,06,08,05,14,12.70
2015,06,08,05,15,12.60
2015,06,08,05,16,12.60
2015,06,08,05,17,12.60
2015,06,08,05,18,12.60
2015,06,08,05,19,12.60
2015,06,08,05,20,12.60
2015,06,08,05,21,12.60
2015,06,08,05,22,12.60
2015,06,08,05,23,12.60
2015,06,08,05,24,12.60
2015,06,08,05,25,12.60
2015,06,08,05,26,12.60
2015,06,08,05,27,12.60
2015,06,08,05,28,12.60
2015,06,08,05,29,12.60
2015,06,08,05,30,12.60
2015,06,08,05,31,12.60
2015,06,08,05,32,12.60
2015,06,08,05,33,12.60
2015,06,08,05,34,12.60
2015,06,08,05,35,12.60
2015,06,08,05,36,12.50
2015,06,08,05,37,12.50
2015,06,08,05,38,12.50
2015,06,08,05,39,12.50
2015,06,08,05,40,12.50
2015,06,08,05,41,12.50
2015,06,08,05,42,12.50
2015,06,08,05,43,12.50
2015,06,08,05,44,12.50
2015,06,08,05,45,12.50
2015,06,08,05,46,12.50
2015,06,08,05,47,12.50
2015,06,08,05,48,12.60
2015,06,08,05,49,12.60
2015,06,08,05,50,12.60
2015,06,08,05,51,12.60
2015,06,08,05,52,12.60
2015,06,08,05,53,12.60
2015,06,08,05,54,12.60
2015,06,08,05,55,12.70
2015,06,08,05,56,12.70
2015,06,08,05,57,12.80
2015,06,08,05,58,12.80
2015,06,08,05,59,12.90
2015,06,08,06,00,13.00
2015,06,08,06,01,13.00
2015,06,08,06,02,13.10
2015,06,08,06,03,13.10
2015,06,08,06,04,13.20
2015,06,08,06,05,13.20
2015,06,08,06,06,13.20
2015,06,08,06,07,13.20
2015,06,08,06,08,13.20
2015,06,08,06,09,13.30
2015,06,08,06,10,13.30
2015,06,08,06,11,13.30
2015,06,08,06,12,13.40
2015,06,08,06,13,13.50
2015,06,08,06,14,13.60
2015,06,08,06,15,13.60
2015,06,08,06,16,13.70
2015,06,08,06,17,13.80
2015,06,08,06,18,13.80
2015,06,08,06,19,13.90
2015,06,08,06,20,13.90
2015,06,08,06,21,13.90
2015,06,08,06,22,13.90
2015,06,08,06,23,13.90
2015,06,08,06,24,14.00
2015,06,08,06,25,14.00
2015,06,08,06,26,14.00
2015,06,08,06,27,14.00
2015,06,08,06,28,14.00
2015,06,08,06,29,14.10
2015,06,08,06,30,14.10
2015,06,08,06,31,14.10
2015,06,08,06,32,14.10
2015,06,08,06,33,14.20
2015,06,08,06,34,14.20
2015,06,08,06,35,14.20
2015,06,08,06,36,14.30
2015,06,08,06,37,14.30
2015,06,08,06,38,14.30
2015,06,08,06,39,14.40
2015,06,08,06,40,14.50
2015,06,08,06,41,14.50
2015,06,08,06,42,14.60
2015,06,08,06,43,14.70
2015,06,08,06,44,14.70
2015,06,08,06,45,14.80
2015,06,08,06,46,14.80
2015,06,08,06,47,14.90
2015,06,08,06,48,14.90
2015,06,08,06,49,15.00
2015,06,08,06,50,15.00
2015,06,08,06,51,15.10
2015,06,08,06,52,15.10
2015,06,08,06,53,15.20
2015,06,08,06,54,15.20
2015,06,08,06,55,15.30
2015,06,08,06,56,15.30
2015,06,08,06,57,15.40
2015,06,08,06,58,15.40
2015,06,08,06,59,15.50
2015,06,08,07,00,15.60
2015,06,08,07,01,15.70
2015,06,08,07,02,15.70
2015,06,08,07,03,15.80
2015,06,08,07,04,15.80
2015,06,08,07,05,15.90
2015,06,08,07,06,15.90
2015,06,08,07,07,16.00
2015,06,08,07,08,16.10
2015,06,08,07,09,16.10
2015,06,08,07,10,16.20
2015,06,08,07,11,16.20
2015,06,08,07,12,16.30
2015,06,08,07,13,16.30
2015,06,08,07,14,16.40
2015,06,08,07,15,16.40
2015,06,08,07,16,16.40
2015,06,08,07,17,16.50
2015,06,08,07,18,16.60
2015,06,08,07,19,16.60
2015,06,08,07,20,16.70
2015,06,08,07,21,16.70
2015,06,08,07,22,16.80
2015,06,08,07,23,16.80
2015,06,08,07,24,16.90
2015,06,08,07,25,16.90
2015,06,08,07,26,17.00
2015,06,08,07,27,17.10
2015,06,08,07,28,17.10
2015,06,08,07,29,17.20
2015,06,08,07,30,17.20
2015,06,08,07,31,17.30
2015,06,08,07,32,17.30
2015,06,08,07,33,17.30
2015,06,08,07,34,17.40
2015,06,08,07,35,17.40
2015,06,08,07,36,17.50
2015,06,08,07,37,17.60
2015,06,08,07,38,17.70
2015,06,08,07,39,17.80
2015,06,08,07,40,17.90
2015,06,08,07,41,18.00
2015,06,08,07,42,18.10
2015,06,08,07,43,18.20
2015,06,08,07,44,18.20
2015,06,08,07,45,18.30
2015,06,08,07,46,18.30
2015,06,08,07,47,18.40
2015,06,08,07,48,18.40
2015,06,08,07,49,18.40
2015,06,08,07,50,18.50
2015,06,08,07,51,18.50
2015,06,08,07,52,18.50
2015,06,08,07,53,18.40
2015,06,08,07,54,18.50
2015,06,08,07,55,18.50
2015,06,08,07,56,18.50
2015,06,08,07,57,18.50
2015,06,08,07,58,18.50
2015,06,08,07,59,18.40
2015,06,08,08,00,18.40
2015,06,08,08,01,18.40
2015,06,08,08,02,18.30
2015,06,08,08,03,18.30
2015,06,08,08,04,18.20
2015,06,08,08,05,18.20
2015,06,08,08,06,18.20
2015,06,08,08,07,18.30
2015,06,08,08,08,18.30
2015,06,08,08,09,18.40
2015,06,08,08,10,18.40
2015,06,08,08,11,18.50
2015,06,08,08,12,18.60
2015,06,08,08,13,18.60
2015,06,08,08,14,18.60
2015,06,08,08,15,18.60
2015,06,08,08,16,18.70
2015,06,08,08,17,18.70
2015,06,08,08,18,18.70
2015,06,08,08,19,18.70
2015,06,08,08,20,18.70
2015,06,08,08,21,18.80
2015,06,08,08,22,18.80
2015,06,08,08,23,18.80
2015,06,08,08,24,18.80
2015,06,08,08,25,18.90
2015,06,08,08,26,18.90
2015,06,08,08,27,19.00
2015,06,08,08,28,19.10
2015,06,08,08,29,19.10
2015,06,08,08,30,19.10
2015,06,08,08,31,19.20
2015,06,08,08,32,19.30
2015,06,08,08,33,19.30
2015,06,08,08,34,19.30
2015,06,08,08,35,19.30
2015,06,08,08,36,19.40
2015,06,08,08,37,19.40
2015,06,08,08,38,19.40
2015,06,08,08,39,19.30
2015,06,08,08,40,19.20
2015,06,08,08,41,19.10
2015,06,08,08,42,19.00
2015,06,08,08,43,18.90
2015,06,08,08,44,18.80
2015,06,08,08,45,18.80
2015,06,08,08,46,18.80
2015,06,08,08,47,18.70
2015,06,08,08,48,18.80
2015,06,08,08,49,18.80
2015,06,08,08,50,18.80
2015,06,08,08,51,18.90
2015,06,08,08,52,18.90
2015,06,08,08,53,19.00
2015,06,08,08,54,19.00
2015,06,08,08,55,19.10
2015,06,08,08,56,19.10
2015,06,08,08,57,19.20
2015,06,08,08,58,19.20
2015,06,08,08,59,19.30
2015,06,08,09,00,19.30
2015,06,08,09,01,19.40
2015,06,08,09,02,19.50
2015,06,08,09,03,19.70
2015,06,08,09,04,19.80
2015,06,08,09,05,19.90
2015,06,08,09,06,20.00
2015,06,08,09,07,20.00
2015,06,08,09,08,20.00
2015,06,08,09,09,19.90
2015,06,08,09,10,19.80
2015,06,08,09,11,19.70
2015,06,08,09,12,19.60
2015,06,08,09,13,19.50
2015,06,08,09,14,19.30
2015,06,08,09,15,19.20
2015,06,08,09,16,19.20
2015,06,08,09,17,19.20
2015,06,08,09,18,19.20
2015,06,08,09,19,19.20
2015,06,08,09,20,19.30
2015,06,08,09,21,19.40
2015,06,08,09,22,19.40
2015,06,08,09,23,19.50
2015,06,08,09,24,19.50
2015,06,08,09,25,19.40
2015,06,08,09,26,19.40
2015,06,08,09,27,19.40
2015,06,08,09,28,19.50
2015,06,08,09,29,19.50
2015,06,08,09,30,19.60
2015,06,08,09,31,19.60
2015,06,08,09,32,19.60
2015,06,08,09,33,19.60
2015,06,08,09,34,19.60
2015,06,08,09,35,19.70
2015,06,08,09,36,19.70
2015,06,08,09,37,19.70
2015,06,08,09,38,19.80
2015,06,08,09,39,19.90
2015,06,08,09,40,20.00
2015,06,08,09,41,20.10
2015,06,08,09,42,20.00
2015,06,08,09,43,20.00
2015,06,08,09,44,20.00
2015,06,08,09,45,19.90
2015,06,08,09,46,20.00
2015,06,08,09,47,20.00
2015,06,08,09,48,20.10
2015,06,08,09,49,20.20
2015,06,08,09,50,20.20
2015,06,08,09,51,20.30
2015,06,08,09,52,20.30
2015,06,08,09,53,20.30
2015,06,08,09,54,20.30
2015,06,08,09,55,20.30
2015,06,08,09,56,20.30
2015,06,08,09,57,20.30
2015,06,08,09,58,20.30
2015,06,08,09,59,20.30
2015,06,08,10,00,20.30
2015,06,08,10,01,20.30
2015,06,08,10,02,20.40
2015,06,08,10,03,20.50
2015,06,08,10,04,20.60
2015,06,08,10,05,20.70
2015,06,08,10,06,20.80
2015,06,08,10,07,21.00
2015,06,08,10,08,21.10
2015,06,08,10,09,21.20
2015,06,08,10,10,21.20
2015,06,08,10,11,21.30
2015,06,08,10,12,21.40
2015,06,08,10,13,21.40
2015,06,08,10,14,21.40
2015,06,08,10,15,21.40
2015,06,08,10,16,21.40
2015,06,08,10,17,21.40
2015,06,08,10,18,21.40
2015,06,08,10,19,21.40
2015,06,08,10,20,21.40
2015,06,08,10,21,21.40
2015,06,08,10,22,21.40
2015,06,08,10,23,21.30
2015,06,08,10,24,21.30
2015,06,08,10,25,21.20
2015,06,08,10,26,21.10
2015,06,08,10,27,21.00
2015,06,08,10,28,21.00
2015,06,08,10,29,21.00
2015,06,08,10,30,21.00
2015,06,08,10,31,21.00
2015,06,08,10,32,21.00
2015,06,08,10,33,21.10
2015,06,08,10,34,21.10
2015,06,08,10,35,21.20
2015,06,08,10,36,21.30
2015,06,08,10,37,21.30
2015,06,08,10,38,21.30
2015,06,08,10,39,21.30
2015,06,08,10,40,21.20
2015,06,08,10,41,21.20
2015,06,08,10,42,21.20
2015,06,08,10,43,21.10
2015,06,08,10,44,21.10
2015,06,08,10,45,21.10
2015,06,08,10,46,21.10
2015,06,08,10,47,21.20
2015,06,08,10,48,21.30
2015,06,08,10,49,21.30
2015,06,08,10,50,21.40
2015,06,08,10,51,21.30
2015,06,08,10,52,21.30
2015,06,08,10,53,21.40
2015,06,08,10,54,21.40
2015,06,08,10,55,21.40
2015,06,08,10,56,21.40
2015,06,08,10,57,21.40
2015,06,08,10,58,21.40
2015,06,08,10,59,21.50
2015,06,08,11,00,21.50
2015,06,08,11,01,21.40
2015,06,08,11,02,21.40
2015,06,08,11,03,21.50
2015,06,08,11,04,21.60
2015,06,08,11,05,21.60
2015,06,08,11,06,21.70
2015,06,08,11,07,21.70
2015,06,08,11,08,21.70
2015,06,08,11,09,21.80
2015,06,08,11,10,21.80
2015,06,08,11,11,21.80
2015,06,08,11,12,21.70
2015,06,08,11,13,21.70
2015,06,08,11,14,21.70
2015,06,08,11,15,21.80
2015,06,08,11,16,21.80
2015,06,08,11,17,21.80
2015,06,08,11,18,21.90
2015,06,08,11,19,21.90
2015,06,08,11,20,22.00
2015,06,08,11,21,22.00
2015,06,08,11,22,21.90
2015,06,08,11,23,21.80
2015,06,08,11,24,21.80
2015,06,08,11,25,21.70
2015,06,08,11,26,21.70
2015,06,08,11,27,21.70
2015,06,08,11,28,21.80
2015,06,08,11,29,21.90
2015,06,08,11,30,21.90
2015,06,08,11,31,21.90
2015,06,08,11,32,21.90
2015,06,08,11,33,21.80
2015,06,08,11,34,21.80
2015,06,08,11,35,22.00
2015,06,08,11,36,22.10
2015,06,08,11,37,22.20
2015,06,08,11,38,22.20
2015,06,08,11,39,22.20
2015,06,08,11,40,22.10
2015,06,08,11,41,22.00
2015,06,08,11,42,21.90
2015,06,08,11,43,21.90
2015,06,08,11,44,21.80
2015,06,08,11,45,21.80
2015,06,08,11,46,21.80
2015,06,08,11,47,21.90
2015,06,08,11,48,21.90
2015,06,08,11,49,21.90
2015,06,08,11,50,21.90
2015,06,08,11,51,21.80
2015,06,08,11,52,21.80
2015,06,08,11,53,21.80
2015,06,08,11,54,21.80
2015,06,08,11,55,21.80
2015,06,08,11,56,21.90
2015,06,08,11,57,21.90
2015,06,08,11,58,21.90
2015,06,08,11,59,21.90
2015,06,08,12,00,22.00
2015,06,08,12,01,22.00
2015,06,08,12,02,22.10
2015,06,08,12,03,22.00
2015,06,08,12,04,21.90
2015,06,08,12,05,21.90
2015,06,08,12,06,21.90
2015,06,08,12,07,21.90
2015,06,08,12,08,21.90
2015,06,08,12,09,21.80
2015,06,08,12,10,21.80
2015,06,08,12,11,21.90
2015,06,08,12,12,21.90
2015,06,08,12,13,22.00
2015,06,08,12,14,22.00
2015,06,08,12,15,22.00
2015,06,08,12,16,21.90
2015,06,08,12,17,21.90
2015,06,08,12,18,21.90
2015,06,08,12,19,21.90
2015,06,08,12,20,21.90
2015,06,08,12,21,21.90
2015,06,08,12,22,21.80
2015,06,08,12,23,21.80
2015,06,08,12,24,21.70
2015,06,08,12,25,21.60
2015,06,08,12,26,21.50
2015,06,08,12,27,21.40
2015,06,08,12,28,21.40
2015,06,08,12,29,21.40
2015,06,08,12,30,21.40
2015,06,08,12,31,21.40
2015,06,08,12,32,21.40
2015,06,08,12,33,21.40
2015,06,08,12,34,21.30
2015,06,08,12,35,21.30
2015,06,08,12,36,21.30
2015,06,08,12,37,21.30
2015,06,08,12,38,21.30
2015,06,08,12,39,21.40
2015,06,08,12,40,21.40
2015,06,08,12,41,21.40
2015,06,08,12,42,21.50
2015,06,08,12,43,21.60
2015,06,08,12,44,21.70
2015,06,08,12,45,21.70
2015,06,08,12,46,21.80
2015,06,08,12,47,21.80
2015,06,08,12,48,21.70
2015,06,08,12,49,21.60
2015,06,08,12,50,21.40
2015,06,08,12,51,21.40
2015,06,08,12,52,21.40
2015,06,08,12,53,21.40
2015,06,08,12,54,21.50
2015,06,08,12,55,21.60
2015,06,08,12,56,21.70
2015,06,08,12,57,21.70
2015,06,08,12,58,21.80
2015,06,08,12,59,21.80
2015,06,08,13,00,21.80
2015,06,08,13,01,21.80
2015,06,08,13,02,21.80
2015,06,08,13,03,21.70
2015,06,08,13,04,21.60
2015,06,08,13,05,21.60
2015,06,08,13,06,21.60
2015,06,08,13,07,21.80
2015,06,08,13,08,21.80
2015,06,08,13,09,21.90
2015,06,08,13,10,21.90
2015,06,08,13,11,21.90
2015,06,08,13,12,21.80
2015,06,08,13,13,21.70
2015,06,08,13,14,21.70
2015,06,08,13,15,21.70
2015,06,08,13,16,21.80
2015,06,08,13,17,21.80
2015,06,08,13,18,21.70
2015,06,08,13,19,21.70
2015,06,08,13,20,21.70
2015,06,08,13,21,21.80
2015,06,08,13,22,21.90
2015,06,08,13,23,22.00
2015,06,08,13,24,22.10
2015,06,08,13,25,22.20
2015,06,08,13,26,22.30
2015,06,08,13,27,22.40
2015,06,08,13,28,22.40
2015,06,08,13,29,22.40
2015,06,08,13,30,22.40
2015,06,08,13,31,22.50
2015,06,08,13,32,22.50
2015,06,08,13,33,22.50
2015,06,08,13,34,22.40
2015,06,08,13,35,22.50
2015,06,08,13,36,22.40
2015,06,08,13,37,22.40
2015,06,08,13,38,22.40
2015,06,08,13,39,22.40
2015,06,08,13,40,22.50
2015,06,08,13,41,22.50
2015,06,08,13,42,22.60
2015,06,08,13,43,22.70
2015,06,08,13,44,22.70
2015,06,08,13,45,22.70
2015,06,08,13,46,22.80
2015,06,08,13,47,22.90
2015,06,08,13,48,22.90
2015,06,08,13,49,23.00
2015,06,08,13,50,23.00
2015,06,08,13,51,23.00
2015,06,08,13,52,23.00
2015,06,08,13,53,23.00
2015,06,08,13,54,23.00
2015,06,08,13,55,23.00
2015,06,08,13,56,23.00
2015,06,08,13,57,22.90
2015,06,08,13,58,23.00
2015,06,08,13,59,23.00
2015,06,08,14,00,23.00
2015,06,08,14,01,23.10
2015,06,08,14,02,23.20
2015,06,08,14,03,23.20
2015,06,08,14,04,23.20
2015,06,08,14,05,23.10
2015,06,08,14,06,23.10
2015,06,08,14,07,23.10
2015,06,08,14,08,23.10
2015,06,08,14,09,23.20
2015,06,08,14,10,23.30
2015,06,08,14,11,23.40
2015,06,08,14,12,23.50
2015,06,08,14,13,23.50
2015,06,08,14,14,23.60
2015,06,08,14,15,23.70
2015,06,08,14,16,23.80
2015,06,08,14,17,23.80
2015,06,08,14,18,23.80
2015,06,08,14,19,23.90
2015,06,08,14,20,24.00
2015,06,08,14,21,24.00
2015,06,08,14,22,24.00
2015,06,08,14,23,24.00
2015,06,08,14,24,23.90
2015,06,08,14,25,23.80
2015,06,08,14,26,23.80
2015,06,08,14,27,23.80
2015,06,08,14,28,23.80
2015,06,08,14,29,23.80
2015,06,08,14,30,23.70
2015,06,08,14,31,23.80
2015,06,08,14,32,23.80
2015,06,08,14,33,23.80
2015,06,08,14,34,23.80
2015,06,08,14,35,23.80
2015,06,08,14,36,23.90
2015,06,08,14,37,23.90
2015,06,08,14,38,24.00
2015,06,08,14,39,24.00
2015,06,08,14,40,23.90
2015,06,08,14,41,23.90
2015,06,08,14,42,23.80
2015,06,08,14,43,23.80
2015,06,08,14,44,23.80
2015,06,08,14,45,23.70
2015,06,08,14,46,23.60
2015,06,08,14,47,23.60
2015,06,08,14,48,23.60
2015,06,08,14,49,23.60
2015,06,08,14,50,23.70
2015,06,08,14,51,23.70
2015,06,08,14,52,23.70
2015,06,08,14,53,23.80
2015,06,08,14,54,23.90
2015,06,08,14,55,24.00
2015,06,08,14,56,24.10
2015,06,08,14,57,24.10
2015,06,08,14,58,24.10
2015,06,08,14,59,24.00
2015,06,08,15,00,24.00
2015,06,08,15,01,23.90
2015,06,08,15,02,23.90
2015,06,08,15,03,24.00
2015,06,08,15,04,24.10
2015,06,08,15,05,24.30
2015,06,08,15,06,24.50
2015,06,08,15,07,24.70
2015,06,08,15,08,24.80
2015,06,08,15,09,24.80
2015,06,08,15,10,24.90
2015,06,08,15,11,24.90
2015,06,08,15,12,24.90
2015,06,08,15,13,24.90
2015,06,08,15,14,24.90
2015,06,08,15,15,24.80
2015,06,08,15,16,24.80
2015,06,08,15,17,24.80
2015,06,08,15,18,24.80
2015,06,08,15,19,24.80
2015,06,08,15,20,24.80
2015,06,08,15,21,24.80
2015,06,08,15,22,24.70
2015,06,08,15,23,24.70
2015,06,08,15,24,24.60
2015,06,08,15,25,24.60
2015,06,08,15,26,24.60
2015,06,08,15,27,24.60
2015,06,08,15,28,24.60
2015,06,08,15,29,24.60
2015,06,08,15,30,24.50
2015,06,08,15,31,24.50
2015,06,08,15,32,24.50
2015,06,08,15,33,24.50
2015,06,08,15,34,24.50
2015,06,08,15,35,24.50
2015,06,08,15,36,24.50
2015,06,08,15,37,24.50
2015,06,08,15,38,24.60
2015,06,08,15,39,24.60
2015,06,08,15,40,24.60
2015,06,08,15,41,24.60
2015,06,08,15,42,24.70
2015,06,08,15,43,24.70
2015,06,08,15,44,24.80
2015,06,08,15,45,24.80
2015,06,08,15,46,24.80
2015,06,08,15,47,24.90
2015,06,08,15,48,24.90
2015,06,08,15,49,25.00
2015,06,08,15,50,24.90
2015,06,08,15,51,24.80
2015,06,08,15,52,24.80
2015,06,08,15,53,24.80
2015,06,08,15,54,24.80
2015,06,08,15,55,24.80
2015,06,08,15,56,24.70
2015,06,08,15,57,24.60
2015,06,08,15,58,24.50
2015,06,08,15,59,24.40
2015,06,08,16,00,24.40
2015,06,08,16,01,24.30
2015,06,08,16,02,24.30
2015,06,08,16,03,24.30
2015,06,08,16,04,24.30
2015,06,08,16,05,24.30
2015,06,08,16,06,24.30
2015,06,08,16,07,24.30
2015,06,08,16,08,24.30
2015,06,08,16,09,24.30
2015,06,08,16,10,24.30
2015,06,08,16,11,24.30
2015,06,08,16,12,24.30
2015,06,08,16,13,24.30
2015,06,08,16,14,24.30
2015,06,08,16,15,24.30
2015,06,08,16,16,24.30
2015,06,08,16,17,24.30
2015,06,08,16,18,24.20
2015,06,08,16,19,24.20
2015,06,08,16,20,24.20
2015,06,08,16,21,24.30
2015,06,08,16,22,24.30
2015,06,08,16,23,24.30
2015,06,08,16,24,24.30
2015,06,08,16,25,24.40
2015,06,08,16,26,24.40
2015,06,08,16,27,24.50
2015,06,08,16,28,24.60
2015,06,08,16,29,24.70
2015,06,08,16,30,24.70
2015,06,08,16,31,24.70
2015,06,08,16,32,24.80
2015,06,08,16,33,24.90
2015,06,08,16,34,24.90
2015,06,08,16,35,24.90
2015,06,08,16,36,24.90
2015,06,08,16,37,24.80
2015,06,08,16,38,24.80
2015,06,08,16,39,24.70
2015,06,08,16,40,24.70
2015,06,08,16,41,24.70
2015,06,08,16,42,24.70
2015,06,08,16,43,24.70
2015,06,08,16,44,24.70
2015,06,08,16,45,24.70
2015,06,08,16,46,24.80
2015,06,08,16,47,24.80
2015,06,08,16,48,24.80
2015,06,08,16,49,24.80
2015,06,08,16,50,24.80
2015,06,08,16,51,24.70
2015,06,08,16,52,24.60
2015,06,08,16,53,24.50
2015,06,08,16,54,24.40
2015,06,08,16,55,24.30
2015,06,08,16,56,24.30
2015,06,08,16,57,24.20
2015,06,08,16,58,24.20
2015,06,08,16,59,24.20
2015,06,08,17,00,24.20
2015,06,08,17,01,24.20
2015,06,08,17,02,24.10
2015,06,08,17,03,24.00
2015,06,08,17,04,23.90
2015,06,08,17,05,23.80
2015,06,08,17,06,23.80
2015,06,08,17,07,23.80
2015,06,08,17,08,23.80
2015,06,08,17,09,23.80
2015,06,08,17,10,23.80
2015,06,08,17,11,23.70
2015,06,08,17,12,23.60
2015,06,08,17,13,23.40
2015,06,08,17,14,23.30
2015,06,08,17,15,23.20
2015,06,08,17,16,23.20
2015,06,08,17,17,23.20
2015,06,08,17,18,23.20
2015,06,08,17,19,23.20